Regional Weather Roundup
Issued by NWS

Home | Current Version | Previous Version | Text Only | Print | Product List | Glossary Off
Versions: 1 2 3 4 5 6 7 8 9 10 11 12 13 14 15 16 17 18 19 20 21 22 23 24 25 26 27 28 29 30 31 32 33 34 35 36 37 38 39 40 41 42 43 44 45 46 47 48 49 50

000
ASUS43 KLSX 121757
RWRMO

WEATHER SUMMARY FOR MISSOURI
NATIONAL WEATHER SERVICE SPRINGFIELD MO
1200 PM CST FRI FEB 12 2016

NOTE: "FAIR" INDICATES FEW OR NO CLOUDS BELOW 12,000 FEET WITH NO
       SIGNIFICANT WEATHER AND/OR OBSTRUCTIONS TO VISIBILITY.
       CURRENT SKY AND/OR WEATHER CONDITIONS ARE NOT AVAILABLE FOR
       CHILLICOTHE AND FARMINGTON.

MOZ001>031-035>038-043-044-053-054-121900-
...NORTHERN AND WESTERN MISSOURI...

CITY           SKY/WX    TMP DP  RH WIND       PRES   REMARKS
KANSAS CTY INT MOSUNNY   34  21  59 NW14      30.43R WCI  25
6HR MIN TEMP:  26; 6HR MAX TEMP:  35;

LEE`S SUMMIT   MOSUNNY   36  22  56 N13       30.41S WCI  27
6HR MIN TEMP:  25; 6HR MAX TEMP:  38;

ST JOSEPH      MOSUNNY   29  16  58 N17       30.47R WCI  17
6HR MIN TEMP:  28; 6HR MAX TEMP:  30;

CHILLICOTHE      N/A     31  15  52 NW13G18   30.44R WCI  21
6HR MIN TEMP:  26; 6HR MAX TEMP:  31;


$$
MOZ066>068-077>081-088>096-101>105-121900-
...SOUTHWEST MISSOURI...

CITY           SKY/WX    TMP DP  RH WIND       PRES   REMARKS
SPRINGFIELD    SUNNY     43  23  45 NW17G23   30.33R
6HR MIN TEMP:  25; 6HR MAX TEMP:  43;

JOPLIN         SUNNY     41  25  53 N14       30.39R
6HR MIN TEMP:  24; 6HR MAX TEMP:  42;


$$
MOZ032>034-039>042-045>050-055>058-069>072-121900-
...CENTRAL MISSOURI...

CITY           SKY/WX    TMP DP  RH WIND       PRES   REMARKS
COLUMBIA       NOT AVBL
JEFFERSON CITY MOSUNNY   35  23  61 NW12      30.37R WCI  27
6HR MIN TEMP:  27; 6HR MAX TEMP:  36;

ROLLA          LGT RAIN  35  23  61 NW13      30.29S WCI  26
6HR MIN TEMP:  26; 6HR MAX TEMP:  36; 6HR PCP: TRACE;

SEDALIA        PTSUNNY   35  21  56 N24G30    30.40R WCI  23
6HR MIN TEMP:  28; 6HR MAX TEMP:  37;


$$
MOZ051-052-059>065-121900-
...EAST CENTRAL MISSOURI...

CITY           SKY/WX    TMP DP  RH WIND       PRES   REMARKS
ST LOUIS INTL  CLOUDY    33  23  66 NW17      30.30F WCI  22
6HR MIN TEMP:  26; 6HR MAX TEMP:  33; 6HR PCP: TRACE;


$$
MOZ072>076-082>087-097>100-106>115-121900-
...SOUTH CENTRAL AND SOUTHEAST MISSOURI...

CITY           SKY/WX    TMP DP  RH WIND       PRES   REMARKS
CAPE GIRARDEAU CLOUDY    38  25  59 N17       30.28S WCI  28
6HR MIN TEMP:  29; 6HR MAX TEMP:  38;

POPLAR BLUFF   MOSUNNY   43  26  51 N17       30.27S
6HR MIN TEMP:  30; 6HR MAX TEMP:  44;

WEST PLAINS    SUNNY     45  23  42 NW9G20    30.28R
6HR MIN TEMP:  22; 6HR MAX TEMP:  45;


$$


USA.gov is the U.S. government's official web portal to all federal, state and local government web resources and services.